Location: Columbia, SC
(34.0000°N, 81.0300°W)
Time: 01:59:34
(UTC-04:00)

Tiangong 1 - Visible Passes

Search period start: 27 June 2016 00:00
Search period end: 07 July 2016 00:00
Orbit: 369 x 386 km, 42.8° (Epoch: 26 June)

Date Brightness Start Highest point End Pass type
(mag) Time Alt. Az. Time Alt. Az. Time Alt. Az.
27 Jun 0.8 04:34:49 65° SSW 04:34:49 65° SSW 04:37:50 10° SE visible
27 Jun 2.5 21:02:58 10° S 21:05:19 20° SE 21:07:40 10° E visible
27 Jun 1.9 22:38:43 10° WSW 22:41:43 49° NNW 22:42:38 35° NNE visible
28 Jun 3.4 05:11:17 10° S 05:11:17 10° S 05:11:22 10° S visible
28 Jun 0.9 21:36:52 10° WSW 21:39:57 82° SSE 21:43:03 10° ENE visible
28 Jun 3.5 23:14:18 10° WNW 23:16:47 22° NNW 23:17:13 21° N visible
29 Jun 2.9 22:12:01 10° W 22:14:51 31° NNW 22:17:40 10° NE visible
29 Jun 4.3 23:50:01 10° NW 23:51:01 14° NNW 23:51:01 14° NNW visible
30 Jun 1.8 21:09:54 10° WSW 21:12:59 56° NNW 21:16:01 10° NE visible
30 Jun 3.9 22:47:44 10° NW 22:49:58 18° N 22:52:13 10° NE visible
01 Jul 3.5 21:45:22 10° WNW 21:47:57 23° NNW 21:50:31 10° NE visible
01 Jul 3.9 23:23:12 10° NW 23:25:13 16° N 23:25:23 16° N visible
02 Jul 3.9 22:21:03 10° NW 22:23:07 16° N 22:25:11 10° NE visible
02 Jul 4.5 23:57:57 10° NW 23:58:20 12° NW 23:58:20 12° NW visible
03 Jul 3.7 21:18:41 10° WNW 21:21:01 19° N 21:23:20 10° NE visible
03 Jul 3.6 22:56:09 10° NW 22:58:19 17° N 22:59:06 16° NNE visible
04 Jul 3.9 21:54:09 10° NW 21:56:11 16° N 21:58:12 10° NE visible
04 Jul 3.9 23:30:40 10° NW 23:31:52 18° NNW 23:31:52 18° NNW visible
05 Jul 3.3 22:28:54 10° NW 22:31:20 20° NNE 22:32:34 16° NE visible
06 Jul 3.7 21:27:02 10° NW 21:29:11 17° N 21:31:18 10° NE visible
06 Jul 3.0 23:03:18 10° NW 23:05:17 30° NNW 23:05:17 30° NNW visible
